Year,Month,Day,Hour,Minute,Value (Times are PST for temperature in C)
2018,06,01,00,00,11.20
2018,06,01,00,01,11.20
2018,06,01,00,02,11.20
2018,06,01,00,03,11.20
2018,06,01,00,04,11.20
2018,06,01,00,05,11.20
2018,06,01,00,06,11.20
2018,06,01,00,07,11.20
2018,06,01,00,08,11.20
2018,06,01,00,09,11.20
2018,06,01,00,10,11.20
2018,06,01,00,11,11.10
2018,06,01,00,12,11.10
2018,06,01,00,13,11.10
2018,06,01,00,14,11.10
2018,06,01,00,15,11.10
2018,06,01,00,16,11.10
2018,06,01,00,17,11.10
2018,06,01,00,18,11.10
2018,06,01,00,19,11.10
2018,06,01,00,20,11.10
2018,06,01,00,21,11.10
2018,06,01,00,22,11.10
2018,06,01,00,23,11.00
2018,06,01,00,24,11.00
2018,06,01,00,25,11.00
2018,06,01,00,26,11.00
2018,06,01,00,27,11.00
2018,06,01,00,28,11.00
2018,06,01,00,29,11.00
2018,06,01,00,30,10.90
2018,06,01,00,31,10.90
2018,06,01,00,32,10.90
2018,06,01,00,33,10.90
2018,06,01,00,34,10.90
2018,06,01,00,35,10.90
2018,06,01,00,36,11.00
2018,06,01,00,37,10.90
2018,06,01,00,38,10.90
2018,06,01,00,39,10.90
2018,06,01,00,40,10.90
2018,06,01,00,41,10.90
2018,06,01,00,42,10.90
2018,06,01,00,43,10.90
2018,06,01,00,44,10.90
2018,06,01,00,45,10.90
2018,06,01,00,46,10.90
2018,06,01,00,47,10.90
2018,06,01,00,48,10.90
2018,06,01,00,49,10.90
2018,06,01,00,50,10.80
2018,06,01,00,51,10.80
2018,06,01,00,52,10.80
2018,06,01,00,53,10.80
2018,06,01,00,54,10.80
2018,06,01,00,55,10.80
2018,06,01,00,56,10.80
2018,06,01,00,57,10.80
2018,06,01,00,58,10.80
2018,06,01,00,59,10.80
2018,06,01,01,00,10.80
2018,06,01,01,01,10.80
2018,06,01,01,02,10.80
2018,06,01,01,03,10.80
2018,06,01,01,04,10.80
2018,06,01,01,05,10.80
2018,06,01,01,06,10.80
2018,06,01,01,07,10.80
2018,06,01,01,08,10.80
2018,06,01,01,09,10.80
2018,06,01,01,10,10.80
2018,06,01,01,11,10.80
2018,06,01,01,12,10.80
2018,06,01,01,13,10.80
2018,06,01,01,14,10.80
2018,06,01,01,15,10.80
2018,06,01,01,16,10.80
2018,06,01,01,17,10.80
2018,06,01,01,18,10.80
2018,06,01,01,19,10.80
2018,06,01,01,20,10.80
2018,06,01,01,21,10.80
2018,06,01,01,22,10.80
2018,06,01,01,23,10.80
2018,06,01,01,24,10.80
2018,06,01,01,25,10.80
2018,06,01,01,26,10.70
2018,06,01,01,27,10.70
2018,06,01,01,28,10.70
2018,06,01,01,29,10.70
2018,06,01,01,30,10.70
2018,06,01,01,31,10.70
2018,06,01,01,32,10.70
2018,06,01,01,33,10.70
2018,06,01,01,34,10.70
2018,06,01,01,35,10.70
2018,06,01,01,36,10.70
2018,06,01,01,37,10.70
2018,06,01,01,38,10.70
2018,06,01,01,39,10.70
2018,06,01,01,40,10.70
2018,06,01,01,41,10.70
2018,06,01,01,42,10.70
2018,06,01,01,43,10.70
2018,06,01,01,44,10.70
2018,06,01,01,45,10.70
2018,06,01,01,46,10.70
2018,06,01,01,47,10.70
2018,06,01,01,48,10.70
2018,06,01,01,49,10.70
2018,06,01,01,50,10.70
2018,06,01,01,51,10.60
2018,06,01,01,52,10.60
2018,06,01,01,53,10.60
2018,06,01,01,54,10.60
2018,06,01,01,55,10.60
2018,06,01,01,56,10.60
2018,06,01,01,57,10.60
2018,06,01,01,58,10.60
2018,06,01,01,59,10.60
2018,06,01,02,00,10.60
2018,06,01,02,01,10.60
2018,06,01,02,02,10.60
2018,06,01,02,03,10.60
2018,06,01,02,04,10.60
2018,06,01,02,05,10.60
2018,06,01,02,06,10.60
2018,06,01,02,07,10.60
2018,06,01,02,08,10.60
2018,06,01,02,09,10.60
2018,06,01,02,10,10.60
2018,06,01,02,11,10.60
2018,06,01,02,12,10.60
2018,06,01,02,13,10.60
2018,06,01,02,14,10.60
2018,06,01,02,15,10.60
2018,06,01,02,16,10.60
2018,06,01,02,17,10.70
2018,06,01,02,18,10.70
2018,06,01,02,19,10.70
2018,06,01,02,20,10.70
2018,06,01,02,21,10.70
2018,06,01,02,22,10.70
2018,06,01,02,23,10.70
2018,06,01,02,24,10.70
2018,06,01,02,25,10.60
2018,06,01,02,26,10.60
2018,06,01,02,27,10.60
2018,06,01,02,28,10.60
2018,06,01,02,29,10.70
2018,06,01,02,30,10.70
2018,06,01,02,31,10.70
2018,06,01,02,32,10.70
2018,06,01,02,33,10.70
2018,06,01,02,34,10.70
2018,06,01,02,35,10.70
2018,06,01,02,36,10.60
2018,06,01,02,37,10.60
2018,06,01,02,38,10.60
2018,06,01,02,39,10.60
2018,06,01,02,40,10.60
2018,06,01,02,41,10.60
2018,06,01,02,42,10.60
2018,06,01,02,43,10.60
2018,06,01,02,44,10.60
2018,06,01,02,45,10.60
2018,06,01,02,46,10.60
2018,06,01,02,47,10.60
2018,06,01,02,48,10.60
2018,06,01,02,49,10.60
2018,06,01,02,50,10.60
2018,06,01,02,51,10.60
2018,06,01,02,52,10.60
2018,06,01,02,53,10.60
2018,06,01,02,54,10.60
2018,06,01,02,55,10.60
2018,06,01,02,56,10.60
2018,06,01,02,57,10.60
2018,06,01,02,58,10.50
2018,06,01,02,59,10.50
2018,06,01,03,00,10.50
2018,06,01,03,01,10.50
2018,06,01,03,02,10.50
2018,06,01,03,03,10.40
2018,06,01,03,04,10.40
2018,06,01,03,05,10.40
2018,06,01,03,06,10.40
2018,06,01,03,07,10.40
2018,06,01,03,08,10.40
2018,06,01,03,09,10.40
2018,06,01,03,10,10.40
2018,06,01,03,11,10.30
2018,06,01,03,12,10.30
2018,06,01,03,13,10.30
2018,06,01,03,14,10.30
2018,06,01,03,15,10.30
2018,06,01,03,16,10.30
2018,06,01,03,17,10.30
2018,06,01,03,18,10.30
2018,06,01,03,19,10.30
2018,06,01,03,20,10.30
2018,06,01,03,21,10.30
2018,06,01,03,22,10.30
2018,06,01,03,23,10.30
2018,06,01,03,24,10.30
2018,06,01,03,25,10.30
2018,06,01,03,26,10.30
2018,06,01,03,27,10.30
2018,06,01,03,28,10.30
2018,06,01,03,29,10.30
2018,06,01,03,30,10.30
2018,06,01,03,31,10.30
2018,06,01,03,32,10.30
2018,06,01,03,33,10.30
2018,06,01,03,34,10.30
2018,06,01,03,35,10.30
2018,06,01,03,36,10.30
2018,06,01,03,37,10.30
2018,06,01,03,38,10.30
2018,06,01,03,39,10.30
2018,06,01,03,40,10.30
2018,06,01,03,41,10.30
2018,06,01,03,42,10.40
2018,06,01,03,43,10.40
2018,06,01,03,44,10.40
2018,06,01,03,45,10.30
2018,06,01,03,46,10.30
2018,06,01,03,47,10.30
2018,06,01,03,48,10.30
2018,06,01,03,49,10.30
2018,06,01,03,50,10.30
2018,06,01,03,51,10.30
2018,06,01,03,52,10.30
2018,06,01,03,53,10.30
2018,06,01,03,54,10.30
2018,06,01,03,55,10.30
2018,06,01,03,56,10.30
2018,06,01,03,57,10.30
2018,06,01,03,58,10.30
2018,06,01,03,59,10.30
2018,06,01,04,00,10.30
2018,06,01,04,01,10.30
2018,06,01,04,02,10.30
2018,06,01,04,03,10.30
2018,06,01,04,04,10.30
2018,06,01,04,05,10.30
2018,06,01,04,06,10.20
2018,06,01,04,07,10.20
2018,06,01,04,08,10.20
2018,06,01,04,09,10.20
2018,06,01,04,10,10.20
2018,06,01,04,11,10.10
2018,06,01,04,12,10.10
2018,06,01,04,13,10.10
2018,06,01,04,14,10.10
2018,06,01,04,15,10.00
2018,06,01,04,16,10.00
2018,06,01,04,17,9.90
2018,06,01,04,18,9.90
2018,06,01,04,19,9.90
2018,06,01,04,20,9.90
2018,06,01,04,21,9.90
2018,06,01,04,22,9.80
2018,06,01,04,23,9.80
2018,06,01,04,24,9.80
2018,06,01,04,25,9.80
2018,06,01,04,26,9.80
2018,06,01,04,27,9.80
2018,06,01,04,28,9.80
2018,06,01,04,29,9.80
2018,06,01,04,30,9.80
2018,06,01,04,31,9.80
2018,06,01,04,32,9.80
2018,06,01,04,33,9.80
2018,06,01,04,34,9.80
2018,06,01,04,35,9.80
2018,06,01,04,36,9.70
2018,06,01,04,37,9.70
2018,06,01,04,38,9.70
2018,06,01,04,39,9.70
2018,06,01,04,40,9.70
2018,06,01,04,41,9.60
2018,06,01,04,42,9.60
2018,06,01,04,43,9.60
2018,06,01,04,44,9.60
2018,06,01,04,45,9.60
2018,06,01,04,46,9.60
2018,06,01,04,47,9.60
2018,06,01,04,48,9.60
2018,06,01,04,49,9.60
2018,06,01,04,50,9.60
2018,06,01,04,51,9.60
2018,06,01,04,52,9.60
2018,06,01,04,53,9.60
2018,06,01,04,54,9.60
2018,06,01,04,55,9.60
2018,06,01,04,56,9.60
2018,06,01,04,57,9.60
2018,06,01,04,58,9.60
2018,06,01,04,59,9.60
2018,06,01,05,00,9.60
2018,06,01,05,01,9.60
2018,06,01,05,02,9.60
2018,06,01,05,03,9.60
2018,06,01,05,04,9.60
2018,06,01,05,05,9.60
2018,06,01,05,06,9.60
2018,06,01,05,07,9.60
2018,06,01,05,08,9.60
2018,06,01,05,09,9.60
2018,06,01,05,10,9.60
2018,06,01,05,11,9.60
2018,06,01,05,12,9.60
2018,06,01,05,13,9.60
2018,06,01,05,14,9.60
2018,06,01,05,15,9.60
2018,06,01,05,16,9.60
2018,06,01,05,17,9.60
2018,06,01,05,18,9.60
2018,06,01,05,19,9.60
2018,06,01,05,20,9.60
2018,06,01,05,21,9.60
2018,06,01,05,22,9.60
2018,06,01,05,23,9.60
2018,06,01,05,24,9.60
2018,06,01,05,25,9.60
2018,06,01,05,26,9.60
2018,06,01,05,27,9.60
2018,06,01,05,28,9.60
2018,06,01,05,29,9.60
2018,06,01,05,30,9.60
2018,06,01,05,31,9.70
2018,06,01,05,32,9.70
2018,06,01,05,33,9.70
2018,06,01,05,34,9.70
2018,06,01,05,35,9.70
2018,06,01,05,36,9.70
2018,06,01,05,37,9.70
2018,06,01,05,38,9.70
2018,06,01,05,39,9.70
2018,06,01,05,40,9.70
2018,06,01,05,41,9.70
2018,06,01,05,42,9.70
2018,06,01,05,43,9.70
2018,06,01,05,44,9.70
2018,06,01,05,45,9.70
2018,06,01,05,46,9.80
2018,06,01,05,47,9.80
2018,06,01,05,48,9.80
2018,06,01,05,49,9.80
2018,06,01,05,50,9.80
2018,06,01,05,51,9.90
2018,06,01,05,52,9.90
2018,06,01,05,53,9.90
2018,06,01,05,54,9.90
2018,06,01,05,55,9.90
2018,06,01,05,56,9.90
2018,06,01,05,57,9.90
2018,06,01,05,58,10.00
2018,06,01,05,59,10.00
2018,06,01,06,00,10.00
2018,06,01,06,01,10.00
2018,06,01,06,02,10.10
2018,06,01,06,03,10.10
2018,06,01,06,04,10.10
2018,06,01,06,05,10.10
2018,06,01,06,06,10.10
2018,06,01,06,07,10.10
2018,06,01,06,08,10.20
2018,06,01,06,09,10.20
2018,06,01,06,10,10.20
2018,06,01,06,11,10.20
2018,06,01,06,12,10.20
2018,06,01,06,13,10.30
2018,06,01,06,14,10.30
2018,06,01,06,15,10.30
2018,06,01,06,16,10.30
2018,06,01,06,17,10.30
2018,06,01,06,18,10.30
2018,06,01,06,19,10.40
2018,06,01,06,20,10.40
2018,06,01,06,21,10.40
2018,06,01,06,22,10.40
2018,06,01,06,23,10.40
2018,06,01,06,24,10.50
2018,06,01,06,25,10.50
2018,06,01,06,26,10.50
2018,06,01,06,27,10.50
2018,06,01,06,28,10.50
2018,06,01,06,29,10.50
2018,06,01,06,30,10.50
2018,06,01,06,31,10.60
2018,06,01,06,32,10.60
2018,06,01,06,33,10.60
2018,06,01,06,34,10.60
2018,06,01,06,35,10.60
2018,06,01,06,36,10.60
2018,06,01,06,37,10.60
2018,06,01,06,38,10.70
2018,06,01,06,39,10.70
2018,06,01,06,40,10.70
2018,06,01,06,41,10.70
2018,06,01,06,42,10.70
2018,06,01,06,43,10.70
2018,06,01,06,44,10.70
2018,06,01,06,45,10.70
2018,06,01,06,46,10.70
2018,06,01,06,47,10.80
2018,06,01,06,48,10.80
2018,06,01,06,49,10.80
2018,06,01,06,50,10.80
2018,06,01,06,51,10.80
2018,06,01,06,52,10.80
2018,06,01,06,53,10.90
2018,06,01,06,54,10.90
2018,06,01,06,55,10.90
2018,06,01,06,56,10.90
2018,06,01,06,57,10.90
2018,06,01,06,58,10.90
2018,06,01,06,59,10.90
2018,06,01,07,00,10.90
2018,06,01,07,01,10.90
2018,06,01,07,02,10.90
2018,06,01,07,03,10.90
2018,06,01,07,04,10.90
2018,06,01,07,05,10.90
2018,06,01,07,06,10.90
2018,06,01,07,07,10.90
2018,06,01,07,08,10.90
2018,06,01,07,09,10.90
2018,06,01,07,10,10.90
2018,06,01,07,11,10.90
2018,06,01,07,12,10.90
2018,06,01,07,13,10.90
2018,06,01,07,14,11.00
2018,06,01,07,15,11.00
2018,06,01,07,16,11.00
2018,06,01,07,17,11.10
2018,06,01,07,18,11.10
2018,06,01,07,19,11.20
2018,06,01,07,20,11.20
2018,06,01,07,21,11.30
2018,06,01,07,22,11.30
2018,06,01,07,23,11.30
2018,06,01,07,24,11.40
2018,06,01,07,25,11.40
2018,06,01,07,26,11.40
2018,06,01,07,27,11.50
2018,06,01,07,28,11.50
2018,06,01,07,29,11.50
2018,06,01,07,30,11.60
2018,06,01,07,31,11.60
2018,06,01,07,32,11.70
2018,06,01,07,33,11.70
2018,06,01,07,34,11.80
2018,06,01,07,35,11.80
2018,06,01,07,36,11.90
2018,06,01,07,37,11.90
2018,06,01,07,38,11.90
2018,06,01,07,39,11.90
2018,06,01,07,40,11.90
2018,06,01,07,41,11.90
2018,06,01,07,42,12.00
2018,06,01,07,43,12.00
2018,06,01,07,44,12.10
2018,06,01,07,45,12.10
2018,06,01,07,46,12.20
2018,06,01,07,47,12.10
2018,06,01,07,48,12.10
2018,06,01,07,49,12.10
2018,06,01,07,50,12.10
2018,06,01,07,51,12.10
2018,06,01,07,52,12.10
2018,06,01,07,53,12.10
2018,06,01,07,54,12.00
2018,06,01,07,55,12.00
2018,06,01,07,56,12.00
2018,06,01,07,57,12.00
2018,06,01,07,58,12.00
2018,06,01,07,59,12.10
2018,06,01,08,00,12.10
2018,06,01,08,01,12.20
2018,06,01,08,02,12.20
2018,06,01,08,03,12.20
2018,06,01,08,04,12.30
2018,06,01,08,05,12.30
2018,06,01,08,06,12.40
2018,06,01,08,07,12.50
2018,06,01,08,08,12.60
2018,06,01,08,09,12.70
2018,06,01,08,10,12.80
2018,06,01,08,11,12.80
2018,06,01,08,12,12.90
2018,06,01,08,13,12.90
2018,06,01,08,14,13.00
2018,06,01,08,15,13.00
2018,06,01,08,16,13.10
2018,06,01,08,17,13.10
2018,06,01,08,18,13.10
2018,06,01,08,19,13.10
2018,06,01,08,20,13.00
2018,06,01,08,21,12.90
2018,06,01,08,22,12.90
2018,06,01,08,23,12.90
2018,06,01,08,24,12.90
2018,06,01,08,25,12.90
2018,06,01,08,26,13.00
2018,06,01,08,27,13.00
2018,06,01,08,28,13.00
2018,06,01,08,29,13.10
2018,06,01,08,30,13.20
2018,06,01,08,31,13.20
2018,06,01,08,32,13.30
2018,06,01,08,33,13.40
2018,06,01,08,34,13.50
2018,06,01,08,35,13.50
2018,06,01,08,36,13.60
2018,06,01,08,37,13.70
2018,06,01,08,38,13.70
2018,06,01,08,39,13.70
2018,06,01,08,40,13.80
2018,06,01,08,41,13.90
2018,06,01,08,42,13.90
2018,06,01,08,43,14.00
2018,06,01,08,44,14.00
2018,06,01,08,45,14.10
2018,06,01,08,46,14.10
2018,06,01,08,47,14.20
2018,06,01,08,48,14.20
2018,06,01,08,49,14.30
2018,06,01,08,50,14.30
2018,06,01,08,51,14.20
2018,06,01,08,52,14.10
2018,06,01,08,53,14.10
2018,06,01,08,54,14.00
2018,06,01,08,55,14.00
2018,06,01,08,56,13.90
2018,06,01,08,57,14.00
2018,06,01,08,58,14.00
2018,06,01,08,59,14.10
2018,06,01,09,00,14.10
2018,06,01,09,01,14.10
2018,06,01,09,02,14.10
2018,06,01,09,03,14.10
2018,06,01,09,04,14.10
2018,06,01,09,05,14.10
2018,06,01,09,06,14.00
2018,06,01,09,07,14.00
2018,06,01,09,08,14.00
2018,06,01,09,09,14.00
2018,06,01,09,10,14.00
2018,06,01,09,11,14.10
2018,06,01,09,12,14.10
2018,06,01,09,13,14.20
2018,06,01,09,14,14.20
2018,06,01,09,15,14.30
2018,06,01,09,16,14.30
2018,06,01,09,17,14.30
2018,06,01,09,18,14.30
2018,06,01,09,19,14.20
2018,06,01,09,20,14.20
2018,06,01,09,21,14.10
2018,06,01,09,22,14.10
2018,06,01,09,23,14.10
2018,06,01,09,24,14.20
2018,06,01,09,25,14.30
2018,06,01,09,26,14.30
2018,06,01,09,27,14.20
2018,06,01,09,28,14.20
2018,06,01,09,29,14.20
2018,06,01,09,30,14.20
2018,06,01,09,31,14.30
2018,06,01,09,32,14.30
2018,06,01,09,33,14.30
2018,06,01,09,34,14.30
2018,06,01,09,35,14.30
2018,06,01,09,36,14.30
2018,06,01,09,37,14.30
2018,06,01,09,38,14.40
2018,06,01,09,39,14.40
2018,06,01,09,40,14.40
2018,06,01,09,41,14.40
2018,06,01,09,42,14.50
2018,06,01,09,43,14.50
2018,06,01,09,44,14.50
2018,06,01,09,45,14.50
2018,06,01,09,46,14.50
2018,06,01,09,47,14.60
2018,06,01,09,48,14.60
2018,06,01,09,49,14.60
2018,06,01,09,50,14.60
2018,06,01,09,51,14.60
2018,06,01,09,52,14.50
2018,06,01,09,53,14.40
2018,06,01,09,54,14.30
2018,06,01,09,55,14.30
2018,06,01,09,56,14.30
2018,06,01,09,57,14.40
2018,06,01,09,58,14.40
2018,06,01,09,59,14.40
2018,06,01,10,00,14.40
2018,06,01,10,01,14.40
2018,06,01,10,02,14.40
2018,06,01,10,03,14.40
2018,06,01,10,04,14.40
2018,06,01,10,05,14.40
2018,06,01,10,06,14.40
2018,06,01,10,07,14.50
2018,06,01,10,08,14.50
2018,06,01,10,09,14.40
2018,06,01,10,10,14.40
2018,06,01,10,11,14.40
2018,06,01,10,12,14.40
2018,06,01,10,13,14.40
2018,06,01,10,14,14.40
2018,06,01,10,15,14.50
2018,06,01,10,16,14.50
2018,06,01,10,17,14.60
2018,06,01,10,18,14.60
2018,06,01,10,19,14.60
2018,06,01,10,20,14.60
2018,06,01,10,21,14.70
2018,06,01,10,22,14.70
2018,06,01,10,23,14.70
2018,06,01,10,24,14.70
2018,06,01,10,25,14.70
2018,06,01,10,26,14.70
2018,06,01,10,27,14.70
2018,06,01,10,28,14.60
2018,06,01,10,29,14.60
2018,06,01,10,30,14.60
2018,06,01,10,31,14.60
2018,06,01,10,32,14.60
2018,06,01,10,33,14.60
2018,06,01,10,34,14.50
2018,06,01,10,35,14.50
2018,06,01,10,36,14.60
2018,06,01,10,37,14.60
2018,06,01,10,38,14.60
2018,06,01,10,39,14.60
2018,06,01,10,40,14.60
2018,06,01,10,41,14.60
2018,06,01,10,42,14.50
2018,06,01,10,43,14.50
2018,06,01,10,44,14.50
2018,06,01,10,45,14.50
2018,06,01,10,46,14.60
2018,06,01,10,47,14.60
2018,06,01,10,48,14.60
2018,06,01,10,49,14.70
2018,06,01,10,50,14.80
2018,06,01,10,51,14.80
2018,06,01,10,52,14.90
2018,06,01,10,53,14.90
2018,06,01,10,54,15.00
2018,06,01,10,55,15.10
2018,06,01,10,56,15.10
2018,06,01,10,57,15.10
2018,06,01,10,58,15.10
2018,06,01,10,59,15.10
2018,06,01,11,00,15.10
2018,06,01,11,01,15.10
2018,06,01,11,02,15.20
2018,06,01,11,03,15.20
2018,06,01,11,04,15.20
2018,06,01,11,05,15.30
2018,06,01,11,06,15.30
2018,06,01,11,07,15.30
2018,06,01,11,08,15.30
2018,06,01,11,09,15.30
2018,06,01,11,10,15.30
2018,06,01,11,11,15.30
2018,06,01,11,12,15.30
2018,06,01,11,13,15.30
2018,06,01,11,14,15.20
2018,06,01,11,15,15.20
2018,06,01,11,16,15.20
2018,06,01,11,17,15.30
2018,06,01,11,18,15.30
2018,06,01,11,19,15.30
2018,06,01,11,20,15.30
2018,06,01,11,21,15.30
2018,06,01,11,22,15.30
2018,06,01,11,23,15.30
2018,06,01,11,24,15.40
2018,06,01,11,25,15.40
2018,06,01,11,26,15.40
2018,06,01,11,27,15.40
2018,06,01,11,28,15.40
2018,06,01,11,29,15.40
2018,06,01,11,30,15.50
2018,06,01,11,31,15.50
2018,06,01,11,32,15.60
2018,06,01,11,33,15.60
2018,06,01,11,34,15.60
2018,06,01,11,35,15.50
2018,06,01,11,36,15.50
2018,06,01,11,37,15.50
2018,06,01,11,38,15.40
2018,06,01,11,39,15.40
2018,06,01,11,40,15.40
2018,06,01,11,41,15.40
2018,06,01,11,42,15.50
2018,06,01,11,43,15.50
2018,06,01,11,44,15.60
2018,06,01,11,45,15.60
2018,06,01,11,46,15.70
2018,06,01,11,47,15.70
2018,06,01,11,48,15.80
2018,06,01,11,49,15.80
2018,06,01,11,50,15.90
2018,06,01,11,51,15.90
2018,06,01,11,52,16.00
2018,06,01,11,53,16.00
2018,06,01,11,54,16.00
2018,06,01,11,55,16.00
2018,06,01,11,56,16.00
2018,06,01,11,57,15.90
2018,06,01,11,58,15.90
2018,06,01,11,59,15.80
2018,06,01,12,00,15.80
2018,06,01,12,01,15.80
2018,06,01,12,02,15.80
2018,06,01,12,03,15.80
2018,06,01,12,04,15.70
2018,06,01,12,05,15.70
2018,06,01,12,06,15.70
2018,06,01,12,07,15.80
2018,06,01,12,08,15.80
2018,06,01,12,09,15.80
2018,06,01,12,10,15.90
2018,06,01,12,11,16.00
2018,06,01,12,12,16.00
2018,06,01,12,13,16.10
2018,06,01,12,14,16.10
2018,06,01,12,15,16.10
2018,06,01,12,16,16.10
2018,06,01,12,17,16.00
2018,06,01,12,18,16.00
2018,06,01,12,19,15.80
2018,06,01,12,20,15.70
2018,06,01,12,21,15.60
2018,06,01,12,22,15.50
2018,06,01,12,23,15.40
2018,06,01,12,24,15.40
2018,06,01,12,25,15.40
2018,06,01,12,26,15.30
2018,06,01,12,27,15.30
2018,06,01,12,28,15.30
2018,06,01,12,29,15.30
2018,06,01,12,30,15.30
2018,06,01,12,31,15.20
2018,06,01,12,32,15.20
2018,06,01,12,33,15.20
2018,06,01,12,34,15.10
2018,06,01,12,35,15.00
2018,06,01,12,36,15.00
2018,06,01,12,37,14.90
2018,06,01,12,38,14.90
2018,06,01,12,39,14.90
2018,06,01,12,40,14.90
2018,06,01,12,41,14.80
2018,06,01,12,42,14.80
2018,06,01,12,43,14.80
2018,06,01,12,44,14.70
2018,06,01,12,45,14.70
2018,06,01,12,46,14.60
2018,06,01,12,47,14.60
2018,06,01,12,48,14.60
2018,06,01,12,49,14.60
2018,06,01,12,50,14.60
2018,06,01,12,51,14.50
2018,06,01,12,52,14.40
2018,06,01,12,53,14.40
2018,06,01,12,54,14.40
2018,06,01,12,55,14.30
2018,06,01,12,56,14.30
2018,06,01,12,57,14.30
2018,06,01,12,58,14.30
2018,06,01,12,59,14.30
2018,06,01,13,00,14.30
2018,06,01,13,01,14.20
2018,06,01,13,02,14.20
2018,06,01,13,03,14.20
2018,06,01,13,04,14.20
2018,06,01,13,05,14.20
2018,06,01,13,06,14.20
2018,06,01,13,07,14.10
2018,06,01,13,08,14.10
2018,06,01,13,09,14.10
2018,06,01,13,10,14.00
2018,06,01,13,11,14.00
2018,06,01,13,12,14.00
2018,06,01,13,13,13.90
2018,06,01,13,14,13.90
2018,06,01,13,15,13.90
2018,06,01,13,16,13.90
2018,06,01,13,17,13.90
2018,06,01,13,18,13.90
2018,06,01,13,19,13.90
2018,06,01,13,20,13.90
2018,06,01,13,21,13.90
2018,06,01,13,22,13.90
2018,06,01,13,23,13.90
2018,06,01,13,24,13.90
2018,06,01,13,25,13.90
2018,06,01,13,26,13.90
2018,06,01,13,27,13.90
2018,06,01,13,28,13.90
2018,06,01,13,29,13.90
2018,06,01,13,30,13.90
2018,06,01,13,31,13.90
2018,06,01,13,32,13.90
2018,06,01,13,33,13.90
2018,06,01,13,34,13.90
2018,06,01,13,35,13.90
2018,06,01,13,36,13.90
2018,06,01,13,37,13.90
2018,06,01,13,38,13.90
2018,06,01,13,39,14.00
2018,06,01,13,40,14.00
2018,06,01,13,41,14.10
2018,06,01,13,42,14.10
2018,06,01,13,43,14.10
2018,06,01,13,44,14.10
2018,06,01,13,45,14.10
2018,06,01,13,46,14.20
2018,06,01,13,47,14.20
2018,06,01,13,48,14.20
2018,06,01,13,49,14.30
2018,06,01,13,50,14.30
2018,06,01,13,51,14.30
2018,06,01,13,52,14.30
2018,06,01,13,53,14.30
2018,06,01,13,54,14.30
2018,06,01,13,55,14.30
2018,06,01,13,56,14.30
2018,06,01,13,57,14.30
2018,06,01,13,58,14.40
2018,06,01,13,59,14.40
2018,06,01,14,00,14.50
2018,06,01,14,01,14.60
2018,06,01,14,02,14.60
2018,06,01,14,03,14.60
2018,06,01,14,04,14.60
2018,06,01,14,05,14.60
2018,06,01,14,06,14.70
2018,06,01,14,07,14.70
2018,06,01,14,08,14.70
2018,06,01,14,09,14.70
2018,06,01,14,10,14.70
2018,06,01,14,11,14.80
2018,06,01,14,12,14.80
2018,06,01,14,13,14.80
2018,06,01,14,14,14.80
2018,06,01,14,15,14.90
2018,06,01,14,16,14.90
2018,06,01,14,17,14.80
2018,06,01,14,18,14.80
2018,06,01,14,19,14.80
2018,06,01,14,20,14.80
2018,06,01,14,21,14.90
2018,06,01,14,22,14.90
2018,06,01,14,23,14.90
2018,06,01,14,24,14.90
2018,06,01,14,25,14.90
2018,06,01,14,26,14.90
2018,06,01,14,27,15.00
2018,06,01,14,28,15.00
2018,06,01,14,29,15.00
2018,06,01,14,30,14.90
2018,06,01,14,31,14.90
2018,06,01,14,32,14.90
2018,06,01,14,33,14.80
2018,06,01,14,34,14.80
2018,06,01,14,35,14.80
2018,06,01,14,36,14.80
2018,06,01,14,37,14.80
2018,06,01,14,38,14.80
2018,06,01,14,39,14.80
2018,06,01,14,40,14.80
2018,06,01,14,41,14.90
2018,06,01,14,42,14.90
2018,06,01,14,43,14.80
2018,06,01,14,44,14.80
2018,06,01,14,45,14.80
2018,06,01,14,46,14.80
2018,06,01,14,47,14.70
2018,06,01,14,48,14.70
2018,06,01,14,49,14.70
2018,06,01,14,50,14.70
2018,06,01,14,51,14.70
2018,06,01,14,52,14.70
2018,06,01,14,53,14.60
2018,06,01,14,54,14.60
2018,06,01,14,55,14.60
2018,06,01,14,56,14.70
2018,06,01,14,57,14.70
2018,06,01,14,58,14.70
2018,06,01,14,59,14.70
2018,06,01,15,00,14.70
2018,06,01,15,01,14.70
2018,06,01,15,02,14.70
2018,06,01,15,03,14.70
2018,06,01,15,04,14.60
2018,06,01,15,05,14.60
2018,06,01,15,06,14.60
2018,06,01,15,07,14.50
2018,06,01,15,08,14.50
2018,06,01,15,09,14.50
2018,06,01,15,10,14.50
2018,06,01,15,11,14.50
2018,06,01,15,12,14.60
2018,06,01,15,13,14.60
2018,06,01,15,14,14.60
2018,06,01,15,15,14.60
2018,06,01,15,16,14.50
2018,06,01,15,17,14.50
2018,06,01,15,18,14.50
2018,06,01,15,19,14.50
2018,06,01,15,20,14.50
2018,06,01,15,21,14.50
2018,06,01,15,22,14.50
2018,06,01,15,23,14.50
2018,06,01,15,24,14.50
2018,06,01,15,25,14.50
2018,06,01,15,26,14.50
2018,06,01,15,27,14.50
2018,06,01,15,28,14.50
2018,06,01,15,29,14.50
2018,06,01,15,30,14.60
2018,06,01,15,31,14.60
2018,06,01,15,32,14.60
2018,06,01,15,33,14.60
2018,06,01,15,34,14.60
2018,06,01,15,35,14.60
2018,06,01,15,36,14.70
2018,06,01,15,37,14.80
2018,06,01,15,38,14.80
2018,06,01,15,39,14.80
2018,06,01,15,40,14.80
2018,06,01,15,41,14.80
2018,06,01,15,42,14.80
2018,06,01,15,43,14.80
2018,06,01,15,44,14.80
2018,06,01,15,45,14.80
2018,06,01,15,46,14.80
2018,06,01,15,47,14.80
2018,06,01,15,48,14.80
2018,06,01,15,49,14.90
2018,06,01,15,50,14.90
2018,06,01,15,51,14.90
2018,06,01,15,52,14.90
2018,06,01,15,53,14.90
2018,06,01,15,54,14.80
2018,06,01,15,55,14.70
2018,06,01,15,56,14.70
2018,06,01,15,57,14.60
2018,06,01,15,58,14.60
2018,06,01,15,59,14.60
2018,06,01,16,00,14.50
2018,06,01,16,01,14.50
2018,06,01,16,02,14.50
2018,06,01,16,03,14.50
2018,06,01,16,04,14.50
2018,06,01,16,05,14.50
2018,06,01,16,06,14.50
2018,06,01,16,07,14.50
2018,06,01,16,08,14.40
2018,06,01,16,09,14.40
2018,06,01,16,10,14.50
2018,06,01,16,11,14.50
2018,06,01,16,12,14.50
2018,06,01,16,13,14.50
2018,06,01,16,14,14.60
2018,06,01,16,15,14.60
2018,06,01,16,16,14.60
2018,06,01,16,17,14.60
2018,06,01,16,18,14.60
2018,06,01,16,19,14.60
2018,06,01,16,20,14.60
2018,06,01,16,21,14.60
2018,06,01,16,22,14.60
2018,06,01,16,23,14.60
2018,06,01,16,24,14.60
2018,06,01,16,25,14.60
2018,06,01,16,26,14.60
2018,06,01,16,27,14.60
2018,06,01,16,28,14.60
2018,06,01,16,29,14.60
2018,06,01,16,30,14.60
2018,06,01,16,31,14.60
2018,06,01,16,32,14.60
2018,06,01,16,33,14.60
2018,06,01,16,34,14.60
2018,06,01,16,35,14.60
2018,06,01,16,36,14.60
2018,06,01,16,37,14.60
2018,06,01,16,38,14.60
2018,06,01,16,39,14.60
2018,06,01,16,40,14.60
2018,06,01,16,41,14.60
2018,06,01,16,42,14.60
2018,06,01,16,43,14.70
2018,06,01,16,44,14.70
2018,06,01,16,45,14.70
2018,06,01,16,46,14.70
2018,06,01,16,47,14.70
2018,06,01,16,48,14.70
2018,06,01,16,49,14.70
2018,06,01,16,50,14.70
2018,06,01,16,51,14.70
2018,06,01,16,52,14.80
2018,06,01,16,53,14.80
2018,06,01,16,54,14.80
2018,06,01,16,55,14.80
2018,06,01,16,56,14.80
2018,06,01,16,57,14.80
2018,06,01,16,58,14.80
2018,06,01,16,59,14.80
2018,06,01,17,00,14.90
2018,06,01,17,01,14.90
2018,06,01,17,02,14.90
2018,06,01,17,03,14.90
2018,06,01,17,04,14.90
2018,06,01,17,05,14.90
2018,06,01,17,06,15.00
2018,06,01,17,07,15.00
2018,06,01,17,08,15.00
2018,06,01,17,09,15.00
2018,06,01,17,10,15.00
2018,06,01,17,11,15.00
2018,06,01,17,12,15.10
2018,06,01,17,13,15.10
2018,06,01,17,14,15.10
2018,06,01,17,15,15.10
2018,06,01,17,16,15.20
2018,06,01,17,17,15.20
2018,06,01,17,18,15.20
2018,06,01,17,19,15.20
2018,06,01,17,20,15.30
2018,06,01,17,21,15.30
2018,06,01,17,22,15.30
2018,06,01,17,23,15.30